Location: S�tio Afonso Gruber
(26.1760°S, 49.5250°W)
Time: 21:47:33
(UTC+00:00)

Cosmos 2016 Rocket - Pass Details

Date: 08 October 2020
Orbit: 946 x 1001 km, 83.0° (Epoch: 27 October)

Event Time Altitude Azimuth Distance (km) Brightness Sun altitude
Exits shadow 06:36:11 25° 20° (NNE) 1,870 5.4 -29.6°
Maximum altitude 06:39:49 57° 88° (E) 1,151 4.5 -28.9°
Drops below altitude 10° 06:46:02 10° 165° (SSE) 2,773 6.8 -27.6°
Sets 06:48:37 0° 169° (SSE) 3,734 7.5 -27.1°
